Kalamazoo, MI

11:42 PM EDT on May 26, 2018 (GMT -0400)
Kalamazoo-Battle Creek International

Weather History for KAZO - December, 2011

Change the Weather History Date:

Thursday, December 29, 2011

  Actual Average Record
Temperature  
Mean Temperature 35 °F 26 °F  
Max Temperature 42 °F 32 °F 65 °F (1984)
Min Temperature 27 °F 19 °F -4 °F (1961)
Degree Days  
Heating Degree Days 30 39  
Month to date heating degree days 1043  
Since 1 July heating degree days 2370  
Cooling Degree Days 0 0  
Month to date cooling degree days 0  
Year to date cooling degree days 675  
Moisture  
Dew Point 29 °F    
Average Humidity 78    
Maximum Humidity 87    
Minimum Humidity 67    
Precipitation  
Precipitation T in 0.05 in 0.85 in (1948)
Month to date precipitation 1.58 1.86  
Year to date precipitation 35.62  
Sea Level Pressure  
Sea Level Pressure 29.68 in    
Wind  
Wind Speed 8 mph (SSW)    
Max Wind Speed 18 mph    
Max Gust Speed 22 mph    
Visibility 9 miles    
Events      
T = Trace of Precipitation, MM = Missing Value Source: NWS Daily Summary

Daily Weather History Graph

Daily Weather History Graph

Search for Another Location

Airport or City:

Astronomy

Dec. 29, 2011 Rise Set
Actual Time 8:10 AM EST 5:17 PM EST
Civil Twilight 7:38 AM EST 5:49 PM EST
Nautical Twilight 7:03 AM EST 6:25 PM EST
Astronomical Twilight 6:29 AM EST 6:59 PM EST
Moon 10:57 AM EST (12/29) 11:00 PM EST (12/29)
Length of Visible Light 10h 11m
Length of Day
9h 07m
Waxing Crescent, 26% of the Moon is Illuminated
Dec 29
Waxing Crescent
Jan 1
First Quarter
Jan 9
Full
Jan 16
Last Quarter
Jan 23
New

Hourly Weather History & Observations

Time (EST) Temp. Windchill Dew Point Humidity Pressure Visibility Wind Dir Wind Speed Gust Speed Precip Events Conditions
12:53 AM 28.0 °F 21.7 °F 21.0 °F 75% 29.92 in 10.0 mi South 5.8 mph - N/A   Overcast
1:53 AM 27.0 °F 20.5 °F 21.0 °F 78% 29.89 in 10.0 mi SSE 5.8 mph - N/A   Overcast
2:53 AM 28.0 °F 21.7 °F 21.9 °F 78% 29.87 in 10.0 mi South 5.8 mph - N/A   Mostly Cloudy
3:53 AM 28.9 °F 21.9 °F 23.0 °F 78% 29.83 in 9.0 mi SSE 6.9 mph - N/A   Overcast
4:53 AM 30.0 °F 22.4 °F 24.1 °F 79% 29.80 in 9.0 mi South 8.1 mph - N/A   Mostly Cloudy
5:53 AM 30.0 °F 21.7 °F 25.0 °F 82% 29.77 in 9.0 mi South 9.2 mph - N/A   Partly Cloudy
6:53 AM 30.9 °F 22.2 °F 26.1 °F 82% 29.76 in 8.0 mi South 10.4 mph - N/A   Overcast
7:53 AM 32.0 °F 23.6 °F 27.0 °F 82% 29.73 in 8.0 mi South 10.4 mph - N/A   Overcast
8:53 AM 33.1 °F 24.9 °F 28.0 °F 82% 29.71 in 6.0 mi South 10.4 mph - N/A   Haze
9:53 AM 33.8 °F 27.0 °F 30.2 °F 87% 29.64 in 6.0 mi South 8.1 mph - N/A   Overcast
10:26 AM 35.6 °F 26.6 °F 30.2 °F 81% 29.65 in 6.0 mi South 13.8 mph 18.4 mph N/A   Haze
10:53 AM 35.1 °F 27.4 °F 30.9 °F 85% 29.68 in 7.0 mi South 10.4 mph - N/A   Overcast
11:53 AM 36.0 °F 28.5 °F 30.9 °F 82% 29.64 in 8.0 mi South 10.4 mph - 0.00 in   Overcast
12:53 PM 39.0 °F 30.6 °F 32.0 °F 76% 29.58 in 10.0 mi South 15.0 mph 21.9 mph 0.00 in   Mostly Cloudy
1:11 PM 39.2 °F 31.2 °F 30.2 °F 70% 29.55 in 10.0 mi South 13.8 mph 20.7 mph N/A   Mostly Cloudy
1:53 PM 39.0 °F 31.4 °F 32.0 °F 76% 29.56 in 10.0 mi South 12.7 mph - N/A   Overcast
2:39 PM 39.2 °F 31.6 °F 32.0 °F 75% 29.52 in 10.0 mi South 12.7 mph - N/A   Scattered Clouds
2:53 PM 39.9 °F 33.4 °F 32.0 °F 73% 29.55 in 10.0 mi SSW 10.4 mph - N/A   Mostly Cloudy
3:53 PM 42.1 °F 35.7 °F 32.0 °F 67% 29.57 in 10.0 mi SW 11.5 mph - N/A   Mostly Cloudy
4:53 PM 42.8 °F 38.6 °F 33.8 °F 70% 29.56 in 10.0 mi SSW 6.9 mph - N/A   Overcast
5:53 PM 41.0 °F 38.0 °F 33.1 °F 73% 29.61 in 10.0 mi SSW 4.6 mph - N/A   Overcast
6:14 PM 39.2 °F 35.0 °F 33.8 °F 81% 29.59 in 10.0 mi SSW 5.8 mph - N/A   Overcast
6:53 PM 42.1 °F 38.4 °F 33.1 °F 70% 29.63 in 10.0 mi SW 5.8 mph - N/A   Overcast
7:53 PM 42.1 °F 37.1 °F 33.1 °F 70% 29.66 in 10.0 mi West 8.1 mph - N/A   Overcast
8:53 PM 41.0 °F 37.1 °F 33.1 °F 73% 29.67 in 10.0 mi WSW 5.8 mph - N/A   Overcast
9:53 PM 39.0 °F 35.7 °F 32.0 °F 76% 29.70 in 10.0 mi WSW 4.6 mph - N/A   Clear
10:53 PM 36.0 °F 32.1 °F 32.0 °F 86% 29.71 in 9.0 mi WNW 4.6 mph - N/A   Clear
11:53 PM 35.6 °F 29.9 °F 32.0 °F 87% 29.71 in 6.0 mi West 6.9 mph - N/A   Scattered Clouds